Stündliche Wetter Jumurtov

Heute, 2 März, Dienstag

Zeit Temperatur Niederschläge Wind Luftdruck Luftfeuchtigkeit
00:00 +2°C° 0 mm 6 m/S 758 mmHg 82%
01:00 +2°C° 0 mm 6 m/S 759 mmHg 81%
02:00 +1°C° 0 mm 5 m/S 759 mmHg 81%
03:00 +1°C° 0 mm 4 m/S 759 mmHg 82%
04:00 +1°C° 0 mm 4 m/S 759 mmHg 83%
05:00 +1°C° 0 mm 3 m/S 760 mmHg 85%
06:00 +1°C° 0 mm 3 m/S 760 mmHg 86%
07:00 +1°C° 0 mm 2 m/S 761 mmHg 87%
08:00 +2°C° 0 mm 2 m/S 761 mmHg 79%
09:00 +3°C° 0 mm 2 m/S 761 mmHg 71%
10:00 +4°C° 0 mm 2 m/S 762 mmHg 63%
11:00 +5°C° 0 mm 2 m/S 762 mmHg 60%
12:00 +5°C° 0 mm 3 m/S 761 mmHg 57%
13:00 +5°C° 0 mm 3 m/S 761 mmHg 54%
14:00 +5°C° 0 mm 3 m/S 761 mmHg 54%
15:00 +5°C° 0 mm 3 m/S 761 mmHg 53%
16:00 +5°C° 0 mm 3 m/S 760 mmHg 53%
17:00 +5°C° 0 mm 3 m/S 761 mmHg 55%
18:00 +6°C° 0 mm 2 m/S 761 mmHg 57%
19:00 +5°C° 0 mm 2 m/S 761 mmHg 59%
20:00 +5°C° 0 mm 2 m/S 761 mmHg 60%
21:00 +4°C° 0 mm 2 m/S 761 mmHg 62%
22:00 +3°C° 0 mm 3 m/S 761 mmHg 64%
23:00 +4°C° 0 mm 2 m/S 761 mmHg 65%

Morgen, 3 März, Mittwoch

Zeit Temperatur Niederschläge Wind Luftdruck Luftfeuchtigkeit
00:00 +4°C° 0 mm 2 m/S 761 mmHg 66%
01:00 +3°C° 0 mm 2 m/S 760 mmHg 67%
02:00 +3°C° 0 mm 2 m/S 760 mmHg 68%
03:00 +3°C° 0 mm 2 m/S 760 mmHg 68%
04:00 +3°C° 0 mm 2 m/S 760 mmHg 69%
05:00 +2°C° 0 mm 3 m/S 760 mmHg 69%
06:00 +1°C° 0 mm 3 m/S 759 mmHg 68%
07:00 +1°C° 0 mm 3 m/S 759 mmHg 68%
08:00 +2°C° 0 mm 3 m/S 759 mmHg 63%
09:00 +3°C° 0 mm 3 m/S 759 mmHg 58%
10:00 +5°C° 0 mm 3 m/S 759 mmHg 53%
11:00 +5°C° 0 mm 3 m/S 759 mmHg 52%
12:00 +7°C° 0 mm 3 m/S 758 mmHg 51%
13:00 +8°C° 0 mm 3 m/S 758 mmHg 50%
14:00 +9°C° 0 mm 3 m/S 757 mmHg 52%
15:00 +9°C° 0 mm 3 m/S 756 mmHg 53%
16:00 +9°C° 0 mm 2 m/S 756 mmHg 55%
17:00 +8°C° 0 mm 2 m/S 756 mmHg 59%
18:00 +7°C° 0 mm 2 m/S 756 mmHg 63%
19:00 +7°C° 0 mm 2 m/S 756 mmHg 68%
20:00 +7°C° 0 mm 2 m/S 756 mmHg 69%
21:00 +7°C° 0 mm 1 m/S 755 mmHg 69%
22:00 +7°C° 0 mm 1 m/S 755 mmHg 70%
23:00 +7°C° 0 mm 2 m/S 755 mmHg 68%

übermorgen, 4 März, Donnerstag

Zeit Temperatur Niederschläge Wind Luftdruck Luftfeuchtigkeit
00:00 +7°C° 0 mm 3 m/S 755 mmHg 67%
01:00 +7°C° 0 mm 3 m/S 754 mmHg 65%
02:00 +7°C° 0 mm 3 m/S 754 mmHg 65%
03:00 +5°C° 0 mm 3 m/S 753 mmHg 66%
04:00 +6°C° 0 mm 2 m/S 753 mmHg 66%
05:00 +6°C° 0 mm 2 m/S 753 mmHg 67%
06:00 +7°C° 0 mm 1 m/S 753 mmHg 68%
07:00 +7°C° 0 mm 1 m/S 753 mmHg 69%
08:00 +7°C° 0.8 mm 1 m/S 754 mmHg 74%
09:00 +7°C° 0.8 mm 1 m/S 754 mmHg 80%
10:00 +7°C° 0.8 mm 1 m/S 755 mmHg 85%
11:00 +5°C° 0.1 mm 3 m/S 755 mmHg 82%
12:00 +5°C° 0.1 mm 4 m/S 755 mmHg 78%
13:00 +4°C° 0.1 mm 6 m/S 756 mmHg 74%
14:00 +5°C° 0.1 mm 6 m/S 756 mmHg 67%
15:00 +7°C° 0.1 mm 6 m/S 757 mmHg 59%
16:00 +6°C° 0.1 mm 7 m/S 757 mmHg 51%
17:00 +7°C° 0 mm 6 m/S 758 mmHg 53%
18:00 +5°C° 0 mm 6 m/S 759 mmHg 54%
19:00 +5°C° 0 mm 5 m/S 760 mmHg 55%
20:00 +3°C° 0 mm 5 m/S 761 mmHg 56%
21:00 +3°C° 0 mm 4 m/S 762 mmHg 58%
22:00 0°C° 0 mm 4 m/S 762 mmHg 59%
23:00 +1°C° 0 mm 3 m/S 763 mmHg 60%

5 März, Freitag

Zeit Temperatur Niederschläge Wind Luftdruck Luftfeuchtigkeit
00:00 +1°C° 0 mm 2 m/S 763 mmHg 62%
01:00 -1°C° 0 mm 2 m/S 763 mmHg 63%
02:00 -1°C° 0 mm 2 m/S 763 mmHg 64%
03:00 -1°C° 0 mm 2 m/S 764 mmHg 65%
04:00 -2°C° 0 mm 2 m/S 764 mmHg 66%
05:00 -2°C° 0 mm 2 m/S 764 mmHg 67%
06:00 -2°C° 0 mm 3 m/S 763 mmHg 68%
07:00 -2°C° 0 mm 3 m/S 763 mmHg 69%
08:00 -1°C° 0 mm 4 m/S 763 mmHg 62%
09:00 +1°C° 0 mm 5 m/S 763 mmHg 56%
10:00 +3°C° 0 mm 5 m/S 763 mmHg 50%
11:00 +5°C° 0 mm 5 m/S 762 mmHg 47%
12:00 +6°C° 0 mm 5 m/S 761 mmHg 44%
13:00 +8°C° 0 mm 5 m/S 760 mmHg 41%
14:00 +8°C° 0 mm 5 m/S 759 mmHg 41%
15:00 +8°C° 0 mm 5 m/S 758 mmHg 41%
16:00 +8°C° 0 mm 5 m/S 758 mmHg 41%
17:00 +8°C° 0 mm 5 m/S 757 mmHg 44%
18:00 +7°C° 0 mm 6 m/S 757 mmHg 47%
19:00 +5°C° 0 mm 6 m/S 756 mmHg 50%
20:00 +5°C° 0 mm 6 m/S 756 mmHg 49%
21:00 +4°C° 0 mm 6 m/S 756 mmHg 48%
22:00 +3°C° 0 mm 6 m/S 756 mmHg 47%
23:00 +3°C° 0 mm 6 m/S 756 mmHg 49%

6 März, Samstag

Zeit Temperatur Niederschläge Wind Luftdruck Luftfeuchtigkeit
00:00 +3°C° 0 mm 6 m/S 755 mmHg 50%
01:00 +2°C° 0 mm 7 m/S 755 mmHg 51%
02:00 +2°C° 0 mm 6 m/S 754 mmHg 55%
03:00 +2°C° 0 mm 6 m/S 754 mmHg 58%
04:00 +1°C° 0 mm 6 m/S 754 mmHg 62%
05:00 +1°C° 0.1 mm 6 m/S 754 mmHg 66%
06:00 +1°C° 0.1 mm 6 m/S 755 mmHg 70%
07:00 -1°C° 0.1 mm 6 m/S 755 mmHg 74%
08:00 +1°C° 0.1 mm 6 m/S 755 mmHg 74%
09:00 +1°C° 0.1 mm 6 m/S 756 mmHg 74%
10:00 +2°C° 0.1 mm 6 m/S 756 mmHg 74%
11:00 +2°C° 0 mm 6 m/S 756 mmHg 66%
12:00 +3°C° 0 mm 6 m/S 756 mmHg 57%
13:00 +4°C° 0 mm 6 m/S 756 mmHg 48%
14:00 +4°C° 0 mm 6 m/S 756 mmHg 45%
15:00 +4°C° 0 mm 6 m/S 756 mmHg 41%
16:00 +5°C° 0 mm 6 m/S 756 mmHg 37%
17:00 +5°C° 0 mm 5 m/S 756 mmHg 40%
18:00 +4°C° 0 mm 4 m/S 756 mmHg 42%
19:00 +4°C° 0 mm 3 m/S 756 mmHg 45%
20:00 +3°C° 0 mm 3 m/S 756 mmHg 50%
21:00 +2°C° 0 mm 3 m/S 757 mmHg 55%
22:00 +2°C° 0 mm 3 m/S 757 mmHg 60%
23:00 +2°C° 0 mm 2 m/S 756 mmHg 62%

7 März, Sonntag

Zeit Temperatur Niederschläge Wind Luftdruck Luftfeuchtigkeit
00:00 +1°C° 0 mm 2 m/S 756 mmHg 64%
01:00 +2°C° 0 mm 1 m/S 756 mmHg 66%
02:00 +1°C° 0 mm 1 m/S 755 mmHg 67%
03:00 +1°C° 0 mm 1 m/S 755 mmHg 68%
04:00 -1°C° 0 mm 0 m/S 755 mmHg 69%
05:00 -1°C° 0 mm 0 m/S 755 mmHg 67%
06:00 0°C° 0 mm 1 m/S 755 mmHg 66%
07:00 0°C° 0 mm 1 m/S 755 mmHg 64%
08:00 +2°C° 0 mm 2 m/S 755 mmHg 55%
09:00 +3°C° 0 mm 3 m/S 755 mmHg 46%
10:00 +5°C° 0 mm 4 m/S 755 mmHg 38%
11:00 +6°C° 0 mm 4 m/S 754 mmHg 33%
12:00 +7°C° 0 mm 5 m/S 753 mmHg 28%
13:00 +9°C° 0 mm 5 m/S 753 mmHg 24%
14:00 +10°C° 0 mm 4 m/S 752 mmHg 23%
15:00 +10°C° 0 mm 4 m/S 752 mmHg 22%
16:00 +11°C° 0 mm 4 m/S 751 mmHg 22%
17:00 +10°C° 0 mm 3 m/S 751 mmHg 25%
18:00 +9°C° 0 mm 3 m/S 751 mmHg 28%
19:00 +9°C° 0 mm 2 m/S 751 mmHg 31%
20:00 +8°C° 0 mm 2 m/S 751 mmHg 33%
21:00 +8°C° 0 mm 3 m/S 751 mmHg 36%
22:00 +7°C° 0 mm 3 m/S 751 mmHg 38%
23:00 +7°C° 0 mm 3 m/S 751 mmHg 43%
Mehr zeigen

Wir brauchen deine Erlaubnis

Meteoprog und unser Service Anbieter werden persönliche Daten aufbewahren, so wie Cookies, Geräte Bezeichnung oder ähnliche Technologien von deinem Gerät und Prozess, so wie Persönliche Daten Inhalte und Werbungen, genauso wie social Media und den Verkehr zu analysieren.

  • Aufbewahrung und/oder Zugang zu deiner Geräte Informationen.

    Cookies, Geräte Bezeichnung oder andere Informationen, können aufbewahrt oder Zugang zu deinem Gerät erhalten, für den Grund, der oben angegeben wird.

  • Personalisierte Werbung und Inhalte, Messungen, Einblick in das Publikum und Produkt Entwicklung.

    Werbungen und Inhalte können personalisiert werden, basierend auf ein Profil. Mehr Daten können besser personalisierte Werbungen und Inhalte hinzufügen. Werbung und Inhalte können gezeigt und gemessen werden. Einblicke über das Publikum, welche die Werbung gesehen haben und den Inhalt, können abgeleitet werden. So wie Daten können genutzt werden, um es zu verbessern oder die Benutzer Erfahrung zu verbessern das System und die Software.

Wenn du “Ich stimme zu” klickst, erlaubst du uns, die Cookies zu benutzen die Geräte Bezeichnung, den Web oder ähnliche Technologien zu benutzen. Deine Settings, können in deinem Gerät bei deinem Browser geändert werden.

Für den bestimmten Zweck, berechtigten Interessen beruhen darauf, mehr als auf den Inhalt. Du kannst mehr darüber in unseren Privaten und Cookie Politik lesen.